Regional Weather Roundup
Issued by NWS

Home | Current Version | Previous Version | Graphics & Text | Print | Product List | Glossary On
Versions: 1 2 3 4 5 6 7 8 9 10 11 12 13 14 15 16 17 18 19 20 21 22 23 24 25 26 27
000
ASUS43 KDMX 160107
RWRIA

WEATHER ROUNDUP FOR IOWA
NATIONAL WEATHER SERVICE DES MOINES IA
800 PM CDT TUE APR 15 2014

NOTE: "FAIR" INDICATES FEW OR NO CLOUDS BELOW 12,000 FEET WITH NO
SIGNIFICANT WEATHER AND/OR OBSTRUCTIONS TO VISIBILITY.

* - THESE STATIONS ARE NOT NWS STATIONS...THUS NOT UNDER NWS
QUALITY CONTROL.  THEY ALSO DO NOT REPORT WEATHER SUCH
AS PRECIPITATION OR FOG.

IAZ001>003-012>014-020>022-031>034-043>046-160200-
   NORTHWEST IOWA

CITY           SKY/WX    TMP DP  RH WIND       PRES   REMARKS
CARROLL *      CLOUDY    43  28  56 SE12      29.94F
CHEROKEE *     PTCLDY    43  27  52 SE13      29.89F
DENISON *      PTCLDY    45  27  49 SE13G21   29.90F
LE MARS *      PTCLDY    45  27  49 SE10G17   29.85F
ORANGE CITY *  PTCLDY    43  23  45 SE7       29.85F
SHELDON *      CLOUDY    41  25  52 SE14G20   29.88S
SIOUX CITY     PTCLDY    48  28  46 SE16      29.84F
SPENCER        PTCLDY    41  26  55 SE15      29.93F
STORM LAKE *   PTCLDY    41  27  56 SE14G20   29.92F
$$

IAZ055>058-069>071-079>083-090>094-160200-
   SOUTHWEST IOWA

CITY           SKY/WX    TMP DP  RH WIND       PRES   REMARKS
ATLANTIC *     PTCLDY    46  27  46 SE12      29.93F
AUDUBON *      CLEAR     43  21  42 SE7       29.95F
CLARINDA *     CLEAR     48  30  49 SE10      29.97F
COUNCIL BLFS * CLEAR     46  30  53 SE15G22   29.88F
CRESTON *      PTCLDY    41  28  60 SE10      29.99F
HARLAN  *      CLEAR     45  28  53 SE12G17   29.94F
LAMONI         PTCLDY    45  24  43 SE8       30.02F
RED OAK *      CLEAR     46  30  53 SE10      29.94F
SHENANDOAH *   CLEAR     48  30  49 SE14      29.94F
$$

IAZ047>049-059>061-072>074-084-160200-
   CENTRAL IOWA

CITY           SKY/WX    TMP DP  RH WIND       PRES   REMARKS
AMES           CLEAR     39  23  52 SE7       30.03F WCI  34
ANKENY *       CLEAR     41  23  48 SE7       30.02F
CHARITON *     CLEAR     43  25  49 S9        30.04F
DES MOINES     PTCLDY    44  22  41 S9        30.03F
GRINNELL*      CLEAR     37  23  56 SE5       30.07S WCI  34
KNOXVILLE *    CLEAR     43  21  42 SE7       30.04F
MARSHALLTOWN   CLEAR     37  23  56 SE8       30.05F WCI  31
NEWTON *       CLEAR     37  23  56 SE7       30.05F WCI  32
PELLA *        CLEAR     41  23  48 SE5       30.07F
PERRY *          N/A     41  28  60 SE9       29.99F
$$

IAZ004>006-015-016-023>025-035-036-160200-
   NORTH CENTRAL IOWA

CITY           SKY/WX    TMP DP  RH WIND       PRES   REMARKS
ALGONA *       MOCLDY    37  25  60 SE9       30.00S WCI  31
CLARION *      CLEAR     36  25  64 SE9       30.02S WCI  29
ESTHERVILLE    PTCLDY    36  25  64 SE13      29.96F WCI  27
FORT DODGE *   PTCLDY    39  25  56 SE8       30.00F WCI  34
MASON CITY     CLOUDY    34  20  56 S9        30.05S WCI  27
FOREST CITY *  PTCLDY    34  23  64 SE5       30.03R WCI  30
IOWA FALLS *     N/A     36  23  60 SE7       30.04F WCI  30
$$

IAZ007>011-017>019-026>030-037>042-050>054-066-160200-
   NORTHEAST IOWA

CITY           SKY/WX    TMP DP  RH WIND       PRES   REMARKS
CEDAR RAPIDS   CLEAR     37  14  38 CALM      30.09S
CHARLES CITY * CLOUDY    34  19  55 S7        30.07S WCI  28
CLINTON *      CLEAR     34  19  55 W5        30.17R WCI  30
DECORAH *      MOCLDY    34  16  47 CALM      30.08S
DUBUQUE        CLEAR     34  16  47 CALM      30.10S
MONTICELLO *   CLEAR     34  21  60 CALM      30.11S
OELWEIN *      CLOUDY   N/A N/A N/A S5        30.09S
WATERLOO       PTCLDY    34  17  50 S5        30.08S WCI  30
$$

IAZ064-065-067-068-078-160200-
   EAST CENTRAL IOWA

CITY           SKY/WX    TMP DP  RH WIND       PRES   REMARKS
DAVENPORT      CLEAR     36  17  46 W3        30.13S
IOWA CITY      CLEAR     39  17  41 CALM      30.13S
MT. PLEASANT * CLEAR     39  21  48 S3        30.11F
MUSCATINE *    CLEAR     41  16  36 CALM      30.13S
QUAD CITIES    CLEAR     37  13  37 CALM      30.14R
$$

IAZ062-063-075>077-085>089-095>099-160200-
   SOUTHEAST IOWA

CITY           SKY/WX    TMP DP  RH WIND       PRES   REMARKS
BURLINGTON     CLEAR     41  18  39 CALM      30.12S
FAIRFIELD *    CLEAR     41  19  42 S5        30.11R
FORT MADISON * CLEAR     41  21  45 CALM      30.12F
KEOKUK *       CLEAR     43  19  39 SE5       30.11S
OSKALOOSA *      N/A     39  27  60 S3        30.09R
CENTERVILLE *  CLEAR     41  21  45 S6        30.08S
OTTUMWA        CLEAR     40  24  53 S5        30.08S
WASHINGTON *   CLEAR     39  19  45 CALM      30.11S
$$

ABBREVIATIONS USED IN REMARKS
   TC - TEMPERATURES IN CELSIUS
  WCI - WIND CHILL INDEX
   HX - HEAT INDEX
  VSB - VISIBILITY
$$




USA.gov is the U.S. government's official web portal to all federal, state and local government web resources and services.